Location: Allison Elementary School
(34.0784°N, 117.7317°W)
Time: 19:54:14
(UTC+00:00)

USA 215 - Pass Details

Date: 15 November 2019
Orbit: 1101 x 1107 km, 123.0° (Epoch: 02 December)

Event Time Altitude Azimuth Distance (km) Brightness Sun altitude
Exits shadow 03:37:14 29° 348° (NNW) 1,885 4.5 -35.1°
Drops below altitude 10° 03:40:33 10° 329° (NNW) 2,960 5.8 -35.8°
Sets 03:43:08 0° 323° (NW) 3,920 6.6 -36.3°
